Cloud_Cover
1 7 52 62 100 100 87 87 100 98 89 55 5 74 34 47 64 100 98 100 16 34 6 5 0 0 0 0 0 5 8 26 15 14 3 0 0 0 0 6 8 49 99 5 12 5 38 7 100
20 8 21 72 100 82 78 46 24 51 41 94 38 66 100 86 16 70 98 90 37 25 14 8 2 0 1 0 0 0 0 0 2 0 0 0 1 7 12 5 5 100 50 6 5 25 4 49 98
1 0 36 71 58 53 78 100 78 52 100 32 39 32 87 63 79 70 57 46 57 14 21 5 5 1 5 0 0 0 0 0 1 0 0 0 5 10 8 5 92 55 5 9 35 29 54 98 11
5 29 100 100 37 43 74 57 100 88 8 8 4 46 13 38 100 80 10 30 34 42 11 4 5 39 1 4 1 2 0 0 0 0 0 45 4 5 5 10 84 5 4 30 7 46 27 5 5
2 88 100 99 58 44 96 12 68 98 26 68 60 88 56 85 78 14 0 27 48 83 5 5 5 5 5 1 0 11 0 0 0 2 0 100 97 100 11 4 3 2 36 5 5 5 5 24 72
97 100 90 8 68 90 30 76 12 52 5 5 16 14 37 35 42 13 3 20 55 23 5 5 5 5 5 16 0 0 0 2 0 4 19 100 100 44 14 0 0 1 5 5 8 57 94 73 73
1 95 94 99 56 80 93 66 100 57 97 2 0 13 20 30 11 0 1 0 24 0 5 5 5 5 5 22 5 8 5 5 5 5 5 5 5 5 8 8 2 8 5 3 5 51 100 68 35
0 100 98 48 99 100 70 85 31 100 5 0 6 72 3 7 0 0 0 0 0 0 0 0 0 0 4 5 5 17 6 12 12 16 32 9 6 16 62 5 5 7 5 5 13 96 5 5 5
5 100 100 94 100 99 66 76 10 11 17 1 0 1 0 0 0 0 1 0 0 0 0 0 24 0 0 3 5 5 5 5 5 5 27 58 88 72 81 28 5 37 5 5 5 5 5 5 62
46 99 73 14 95 99 78 78 5 49 55 100 4 4 0 0 0 0 0 0 0 0 0 0 46 11 0 1 1 1 6 3 9 10 38 73 35 14 12 29 6 74 59 95 5 91 72 22 20
100 34 54 28 4 95 47 85 5 85 30 98 5 4 0 0 0 0 0 0 0 0 0 0 0 38 12 15 5 9 25 16 11 5 80 6 33 5 100 43 31 33 33 33 84 6 11 18 15
96 2 5 5 0 94 98 60 96 98 64 17 0 0 0 0 0 0 0 0 0 0 0 0 0 0 7 16 5 5 5 91 35 7 5 5 14 85 7 9 17 25 100 100 100 52 27 90 66
7 1 0 3 0 4 5 24 62 49 0 16 5 0 0 0 0 0 0 0 2 1 1 0 0 0 0 5 69 9 5 4 78 54 21 5 5 11 30 100 99 42 95 100 100 100 90 8 100
4 0 0 0 0 0 58 33 29 1 4 5 5 1 0 0 0 0 0 0 20 16 1 9 0 0 1 5 20 51 5 7 57 62 94 86 26 90 100 100 100 56 100 51 100 100 100 100 100
0 47 0 0 0 0 87 85 62 0 63 7 5 0 0 0 0 0 0 0 47 61 28 1 0 0 0 5 5 5 5 54 96 11 49 42 82 100 100 100 100 99 92 94 99 88 100 100 98
75 99 100 0 0 0 14 100 0 3 2 5 11 14 0 0 0 0 0 6 40 77 8 5 5 68 3 1 4 21 100 99 96 92 60 30 100 100 100 100 100 100 72 75 97 98 87 31 99
88 66 71 53 0 0 11 81 0 4 4 0 5 98 68 16 11 8 5 11 50 16 9 4 4 13 11 0 3 6 29 11 75 99 100 26 91 100 100 100 100 100 100 100 74 100 70 73 100
100 80 59 94 3 0 11 36 5 4 5 54 3 16 12 81 67 98 100 84 77 21 45 5 6 0 0 0 5 1 12 95 57 62 95 97 99 100 100 100 87 95 88 98 100 97 100 100 100
61 54 77 44 0 5 5 10 14 2 2 5 0 56 22 4 90 12 98 100 99 100 99 23 5 3 0 1 29 4 1 8 5 5 5 27 5 100 100 23 100 100 100 34 36 100 100 97 100
38 95 81 40 0 0 15 80 2 20 0 5 5 42 15 4 5 3 2 25 45 69 100 100 4 0 0 100 100 100 100 100 100 100 100 95 20 8 72 52 74 100 100 80 40 45 99 62 98
87 93 10 48 3 21 74 100 100 33 0 5 4 4 26 9 2 5 5 18 4 4 100 100 75 1 64 91 100 100 100 84 83 100 100 100 100 93 95 98 70 76 100 92 84 100 100 100 98
100 22 5 5 4 100 64 100 100 25 6 2 4 5 1 0 1 6 4 3 5 5 94 91 89 57 73 90 50 100 95 60 100 100 87 19 62 55 50 100 94 88 90 100 97 100 100 100 52
80 21 10 3 2 100 96 98 100 88 22 5 4 50 2 20 9 0 4 3 5 6 58 89 38 55 10 100 16 59 80 98 62 31 6 43 20 100 100 89 100 93 82 93 60 72 98 51 86
0 0 5 4 55 100 100 82 91 100 65 1 4 2 9 1 28 0 1 59 67 54 5 7 5 66 5 30 36 42 72 99 86 43 4 32 34 100 97 99 89 95 51 96 72 79 80 100 100
0 4 54 24 88 100 100 100 91 100 6 1 0 0 0 0 5 0 0 39 99 17 5 11 5 5 5 27 68 93 73 24 76 19 13 21 80 86 97 100 88 99 48 84 97 78 100 100 100
4 5 29 100 98 86 90 100 54 77 2 0 0 0 0 0 0 3 0 1 41 100 11 0 5 30 3 5 6 98 100 100 60 14 9 78 37 71 56 100 84 66 100 100 100 96 100 100 100
5 5 5 67 13 73 58 38 96 24 93 7 0 0 0 0 0 0 0 0 9 6 79 2 0 5 3 4 23 60 95 92 100 100 82 24 10 74 100 100 100 100 100 100 100 100 100 100 100
0 30 3 5 43 12 91 52 69 34 89 0 1 0 0 0 0 0 0 0 2 5 5 5 2 77 6 4 15 46 26 10 22 43 90 100 100 100 94 52 49 79 77 94 49 43 61 99 46
0 0 0 38 99 100 81 70 100 94 2 0 5 1 1 0 0 0 0 0 0 0 0 0 0 1 3 10 16 29 12 19 83 90 100 100 71 39 13 11 8 7 24 99 57 54 2 72 89
0 0 0 5 1 0 26 12 15 40 1 0 34 5 0 8 52 2 0 0 0 0 0 0 0 0 6 16 6 38 5 68 38 34 18 10 11 17 5 5 16 58 72 98 23 38 98 98 100